TimeCST,TemperatureF,Dew PointF,Humidity,Sea Level PressureIn,VisibilityMPH,Wind Direction,Wind SpeedMPH,Gust SpeedMPH,PrecipitationIn,Events,Conditions,WindDirDegrees,DateUTC
12:56 AM,72.0,69.1,91,30.00,10.0,South,10.4,-,N/A,,Overcast,190,2013-12-06 06:56:00
1:56 AM,72.0,69.1,91,29.99,10.0,SSW,11.5,-,N/A,,Overcast,200,2013-12-06 07:56:00
2:56 AM,72.0,69.1,91,29.99,10.0,SSW,6.9,-,N/A,,Overcast,200,2013-12-06 08:56:00
3:56 AM,72.0,69.1,91,29.98,10.0,South,6.9,-,N/A,,Overcast,180,2013-12-06 09:56:00
4:56 AM,71.1,69.1,93,29.99,10.0,South,4.6,-,N/A,,Overcast,190,2013-12-06 10:56:00
5:14 AM,71.6,69.8,94,30.01,9.0,SSW,5.8,-,N/A,,Overcast,200,2013-12-06 11:14:00
5:22 AM,71.6,69.8,94,30.01,9.0,South,6.9,-,N/A,,Overcast,190,2013-12-06 11:22:00
5:56 AM,71.1,69.1,93,30.01,9.0,South,6.9,-,N/A,,Overcast,180,2013-12-06 11:56:00
9:33 AM,75.2,69.8,83,30.05,10.0,South,13.8,19.6,N/A,,Mostly Cloudy,190,2013-12-06 15:33:00
9:46 AM,75.2,68.0,78,30.05,10.0,South,10.4,17.3,N/A,,Overcast,190,2013-12-06 15:46:00
9:56 AM,78.1,68.0,71,30.04,10.0,South,13.8,23.0,N/A,,Overcast,180,2013-12-06 15:56:00
10:03 AM,77.0,68.0,74,30.04,10.0,South,17.3,25.3,N/A,,Overcast,180,2013-12-06 16:03:00
10:29 AM,73.4,68.0,83,30.05,8.0,SSW,10.4,-,0.00,Rain,Light Rain,200,2013-12-06 16:29:00
10:38 AM,73.4,69.8,88,30.05,2.5,SSW,9.2,-,0.04,Rain,Heavy Rain,200,2013-12-06 16:38:00
10:47 AM,71.6,69.8,94,30.04,3.0,South,8.1,-,0.05,Rain,Light Rain,190,2013-12-06 16:47:00
10:56 AM,73.9,70.0,87,30.03,9.0,SSW,8.1,-,0.05,Rain,Light Rain,210,2013-12-06 16:56:00
11:10 AM,75.2,71.6,89,30.04,10.0,SW,6.9,-,0.00,,Mostly Cloudy,230,2013-12-06 17:10:00
11:56 AM,75.9,69.1,79,30.00,10.0,SW,9.2,-,0.00,,Mostly Cloudy,220,2013-12-06 17:56:00
1:56 PM,79.0,66.9,66,29.97,10.0,SSW,11.5,23.0,N/A,,Mostly Cloudy,210,2013-12-06 19:56:00
2:56 PM,79.0,66.9,66,29.98,10.0,SSW,9.2,18.4,N/A,,Overcast,210,2013-12-06 20:56:00
3:56 PM,77.0,68.0,74,29.99,10.0,SSW,10.4,20.7,0.00,,Scattered Clouds,210,2013-12-06 21:56:00
4:56 PM,75.0,68.0,79,30.00,10.0,SSW,6.9,-,N/A,,Partly Cloudy,200,2013-12-06 22:56:00
5:56 PM,73.9,68.0,82,30.01,10.0,SSW,11.5,-,N/A,,Mostly Cloudy,200,2013-12-06 23:56:00
6:28 PM,73.4,69.8,88,30.03,10.0,SSW,9.2,-,N/A,,Overcast,210,2013-12-07 00:28:00
6:56 PM,73.0,69.1,87,30.02,10.0,SSW,6.9,-,N/A,,Overcast,200,2013-12-07 00:56:00
7:20 PM,73.4,69.8,88,30.04,10.0,SSW,6.9,-,N/A,,Overcast,200,2013-12-07 01:20:00
7:52 PM,59.0,53.6,82,30.07,10.0,NW,11.5,35.7,0.00,Rain,Light Rain,310,2013-12-07 01:52:00
7:53 PM,57.9,53.1,84,30.07,10.0,WNW,11.5,35.7,0.00,Rain,Light Rain,300,2013-12-07 01:53:00
8:28 PM,55.4,53.6,94,30.10,10.0,NNW,10.4,-,0.07,Rain,Light Rain,330,2013-12-07 02:28:00
8:56 PM,55.0,53.1,93,30.10,9.0,NNW,6.9,-,0.08,Rain,Light Rain,340,2013-12-07 02:56:00
9:43 PM,55.4,53.6,94,30.12,6.0,NW,3.5,-,0.05,Rain,Light Rain,320,2013-12-07 03:43:00
9:56 PM,54.0,52.0,93,30.12,3.0,NNW,5.8,-,0.09,Rain,Heavy Rain,340,2013-12-07 03:56:00
10:35 PM,53.6,51.8,94,30.13,10.0,NW,5.8,-,0.04,Rain,Light Rain,310,2013-12-07 04:35:00
10:56 PM,52.0,50.0,93,30.13,10.0,NW,10.4,-,0.04,,Overcast,310,2013-12-07 04:56:00
11:56 PM,48.9,46.9,93,30.15,6.0,WNW,6.9,-,0.01,Rain,Light Rain,290,2013-12-07 05:56:00